map of CAW home
CAW - Airport
Location
City:  Campos dos Goitacazes, Rio de Janeiro, Brazil
Name:Bartolomeu Lysandro
ICAO:SBCP
IATA:CAW

Details
Type:Airport (Aerodrome, Airfield)
Use:Public/Civil
Latitude:2141'54"S (-21.698332)
Longitude:4118'06"W (-41.301668)
Datum:WGS 1984
Elevation:57 ft (17 m)
Variation:23.48W (WMM2015v2 magnetic declination)
-0.05 annual change
Runways:1
Longest:5066 × 148 ft (1544 × 45 m), paved

Time
Time Zone:UTC-3 (DST-2)
Local Time:

Weather
METAR:SBCP 041400Z 26009KT 9999 FEW025 SCT090 32/18 Q1012
TAF:SBCP 040900Z 0412/0424 22010KT 9999 SCT020 TX31/0416Z TN25/0424Z
BECMG 0415/0417 19010KT 7000 BKN017 PROB40 0419/0423 5000 TSRA BKN015 FEW030CB
RMK PGU

Related Locations
Nearby:
Farthest:IWO: 12166 mi / 19579 km
Iwo Jima [Iwo Jima AB], Iwo Jima Island, 13, JP

Find:

   beyond  
but within

Other Information
Maps:
NOTAMs:
Links:
Sources:

  
  • flag of Brazil
  • flag of Rio de Janeiro
  

Sectional Chart

Flight Planning
at skyvector.com

Satellite Image

Google Maps Satellite view

 

Copyright © 2004-2019 Karl L. Swartz. All rights reserved.
The Great Circle Mapper name and logo are trademarks of the Great Circle Mapper.
All other trademarks mentioned herein belong to their respective owners.
Please see credits for attibutions and further copyright information.

  Follow gcmap on Facebook Follow gcmap on Twitter GCmap on LinkedIn

hCard Microformat

Geo Microformat